When you browse on this site, cookies collect data to enhance your experience and personalize the content and advertising you see.
Visit our Privacy Policy to learn more. By continuing to use the site, you agree to this use of cookies and data.
  • In Latvia
  • List of Countries
  • For 7 days
  • Water Temperature
  • Satellite Maps
  • Weather Map
  • Weather Widgets
  • user-avatar
    Login

    Hourly Weather Seda

    Today, 16 December, Sunday

    Time Temperature Precipitation Wind Pressure Humidity
    00:00 -7°C° 0 mm 2 mps 771 mmHg 92%
    01:00 -7°C° 0 mm 2 mps 771 mmHg 92%
    02:00 -7°C° 0 mm 2 mps 771 mmHg 92%
    03:00 -7°C° 0 mm 2 mps 771 mmHg 92%
    04:00 -7°C° 0 mm 2 mps 770 mmHg 92%
    05:00 -7°C° 0 mm 2 mps 770 mmHg 92%
    06:00 -6°C° 0 mm 2 mps 770 mmHg 92%
    07:00 -6°C° 0 mm 2 mps 770 mmHg 92%
    08:00 -6°C° 0 mm 2 mps 770 mmHg 92%
    09:00 -6°C° 0 mm 3 mps 770 mmHg 90%
    10:00 -5°C° 0 mm 3 mps 770 mmHg 88%
    11:00 -5°C° 0 mm 3 mps 770 mmHg 85%
    12:00 -4°C° 0 mm 3 mps 769 mmHg 84%
    13:00 -4°C° 0 mm 3 mps 769 mmHg 83%
    14:00 -3°C° 0 mm 4 mps 769 mmHg 82%
    15:00 -3°C° 0 mm 4 mps 768 mmHg 82%
    16:00 -3°C° 0 mm 4 mps 768 mmHg 83%
    17:00 -3°C° 0 mm 4 mps 767 mmHg 83%
    18:00 -3°C° 0 mm 4 mps 767 mmHg 83%
    19:00 -3°C° 0 mm 4 mps 767 mmHg 83%
    20:00 -4°C° 0 mm 5 mps 766 mmHg 83%
    21:00 -4°C° 0 mm 5 mps 766 mmHg 82%
    22:00 -4°C° 0 mm 5 mps 766 mmHg 82%
    23:00 -5°C° 0 mm 5 mps 765 mmHg 81%

    Tomorrow, 17 December, Monday

    Time Temperature Precipitation Wind Pressure Humidity
    00:00 -5°C° 0 mm 5 mps 765 mmHg 81%
    01:00 -5°C° 0 mm 5 mps 765 mmHg 81%
    02:00 -5°C° 0 mm 5 mps 765 mmHg 81%
    03:00 -4°C° 0.2 mm 4 mps 765 mmHg 82%
    04:00 -4°C° 0.2 mm 4 mps 764 mmHg 84%
    05:00 -4°C° 0.2 mm 4 mps 764 mmHg 85%
    06:00 -4°C° 0.3 mm 4 mps 764 mmHg 86%
    07:00 -4°C° 0.3 mm 4 mps 764 mmHg 86%
    08:00 -4°C° 0.3 mm 4 mps 764 mmHg 87%
    09:00 -5°C° 0.3 mm 4 mps 764 mmHg 87%
    10:00 -5°C° 0.3 mm 3 mps 764 mmHg 87%
    11:00 -5°C° 0.3 mm 3 mps 764 mmHg 87%
    12:00 -5°C° 0.2 mm 3 mps 764 mmHg 87%
    13:00 -5°C° 0.2 mm 3 mps 764 mmHg 87%
    14:00 -5°C° 0.2 mm 3 mps 764 mmHg 87%
    15:00 -5°C° 0.1 mm 3 mps 764 mmHg 88%
    16:00 -5°C° 0.1 mm 3 mps 764 mmHg 88%
    17:00 -5°C° 0.1 mm 3 mps 764 mmHg 88%
    18:00 -4°C° 0 mm 2 mps 764 mmHg 88%
    19:00 -4°C° 0 mm 2 mps 764 mmHg 88%
    20:00 -4°C° 0 mm 2 mps 765 mmHg 88%
    21:00 -4°C° 0.1 mm 2 mps 765 mmHg 89%
    22:00 -4°C° 0.1 mm 2 mps 765 mmHg 90%
    23:00 -4°C° 0.1 mm 2 mps 765 mmHg 91%

    Day after tomorrow, 18 December, Tuesday

    Time Temperature Precipitation Wind Pressure Humidity
    00:00 -4°C° 0.1 mm 2 mps 765 mmHg 91%
    01:00 -4°C° 0.1 mm 2 mps 765 mmHg 91%
    02:00 -4°C° 0.1 mm 2 mps 765 mmHg 92%
    03:00 -2°C° 0 mm 1 mps 765 mmHg 92%
    04:00 -2°C° 0 mm 1 mps 765 mmHg 93%
    05:00 -3°C° 0 mm 1 mps 765 mmHg 93%
    06:00 -2°C° 0 mm 1 mps 765 mmHg 93%
    07:00 -2°C° 0 mm 1 mps 765 mmHg 93%
    08:00 -2°C° 0 mm 1 mps 766 mmHg 93%
    09:00 -2°C° 0 mm 1 mps 766 mmHg 93%
    10:00 -2°C° 0 mm 1 mps 766 mmHg 93%
    11:00 -2°C° 0 mm 1 mps 766 mmHg 93%
    12:00 -1°C° 0 mm 1 mps 766 mmHg 92%
    13:00 -1°C° 0 mm 1 mps 766 mmHg 91%
    14:00 0°C° 0 mm 1 mps 766 mmHg 90%
    15:00 -1°C° 0 mm 1 mps 767 mmHg 92%
    16:00 -1°C° 0 mm 1 mps 767 mmHg 93%
    17:00 -2°C° 0 mm 1 mps 767 mmHg 95%
    18:00 -4°C° 0 mm 2 mps 767 mmHg 95%
    19:00 -4°C° 0 mm 2 mps 767 mmHg 95%
    20:00 -4°C° 0 mm 2 mps 768 mmHg 95%
    21:00 -4°C° 0 mm 2 mps 768 mmHg 95%
    22:00 -5°C° 0 mm 2 mps 768 mmHg 94%
    23:00 -5°C° 0 mm 2 mps 768 mmHg 94%

    19 December, Wednesday

    Time Temperature Precipitation Wind Pressure Humidity
    00:00 -4°C° 0.1 mm 2 mps 768 mmHg 94%
    01:00 -4°C° 0.1 mm 2 mps 768 mmHg 94%
    02:00 -4°C° 0.1 mm 2 mps 768 mmHg 94%
    03:00 -4°C° 0.2 mm 2 mps 768 mmHg 94%
    04:00 -4°C° 0.2 mm 2 mps 768 mmHg 95%
    05:00 -4°C° 0.2 mm 2 mps 768 mmHg 95%
    06:00 -4°C° 0.1 mm 2 mps 768 mmHg 95%
    07:00 -4°C° 0.1 mm 2 mps 768 mmHg 95%
    08:00 -4°C° 0.1 mm 2 mps 768 mmHg 96%
    09:00 -2°C° 0 mm 1 mps 768 mmHg 94%
    10:00 -1°C° 0 mm 1 mps 769 mmHg 93%
    11:00 -1°C° 0 mm 1 mps 769 mmHg 92%
    12:00 -1°C° 0 mm 1 mps 769 mmHg 92%
    13:00 -1°C° 0 mm 1 mps 769 mmHg 92%
    14:00 0°C° 0 mm 1 mps 769 mmHg 91%
    15:00 -1°C° 0 mm 1 mps 769 mmHg 92%
    16:00 -1°C° 0 mm 1 mps 769 mmHg 93%
    17:00 -1°C° 0 mm 1 mps 769 mmHg 94%
    18:00 -1°C° 0 mm 1 mps 769 mmHg 94%
    19:00 -1°C° 0 mm 1 mps 769 mmHg 94%
    20:00 -1°C° 0 mm 1 mps 769 mmHg 95%
    21:00 -3°C° 0 mm 2 mps 769 mmHg 94%
    22:00 -3°C° 0 mm 2 mps 769 mmHg 94%
    23:00 -3°C° 0 mm 2 mps 770 mmHg 93%

    20 December, Thursday

    Time Temperature Precipitation Wind Pressure Humidity
    00:00 -4°C° 0 mm 2 mps 770 mmHg 93%
    01:00 -4°C° 0 mm 2 mps 770 mmHg 93%
    02:00 -2°C° 0 mm 1 mps 770 mmHg 92%
    03:00 -4°C° 0 mm 2 mps 770 mmHg 92%
    04:00 -5°C° 0 mm 2 mps 770 mmHg 92%
    05:00 -5°C° 0 mm 2 mps 770 mmHg 92%
    06:00 -5°C° 0 mm 2 mps 770 mmHg 91%
    07:00 -5°C° 0 mm 2 mps 770 mmHg 90%
    08:00 -6°C° 0 mm 2 mps 770 mmHg 90%
    09:00 -7°C° 0 mm 3 mps 770 mmHg 88%
    10:00 -6°C° 0 mm 3 mps 770 mmHg 86%
    11:00 -6°C° 0 mm 3 mps 770 mmHg 84%
    12:00 -6°C° 0 mm 3 mps 770 mmHg 84%
    13:00 -6°C° 0 mm 3 mps 769 mmHg 84%
    14:00 -6°C° 0 mm 3 mps 769 mmHg 83%
    15:00 -7°C° 0 mm 3 mps 769 mmHg 85%
    16:00 -7°C° 0 mm 3 mps 769 mmHg 86%
    17:00 -7°C° 0 mm 3 mps 769 mmHg 88%
    18:00 -8°C° 0 mm 3 mps 769 mmHg 88%
    19:00 -9°C° 0 mm 4 mps 769 mmHg 88%
    20:00 -9°C° 0 mm 4 mps 769 mmHg 88%
    21:00 -9°C° 0 mm 4 mps 769 mmHg 87%
    22:00 -10°C° 0 mm 4 mps 769 mmHg 86%
    23:00 -10°C° 0 mm 4 mps 769 mmHg 84%

    21 December, Friday

    Time Temperature Precipitation Wind Pressure Humidity
    00:00 -10°C° 0 mm 4 mps 769 mmHg 84%
    01:00 -10°C° 0 mm 4 mps 768 mmHg 83%
    02:00 -10°C° 0 mm 4 mps 768 mmHg 82%
    03:00 -10°C° 0 mm 4 mps 768 mmHg 82%
    04:00 -10°C° 0 mm 4 mps 768 mmHg 81%
    05:00 -10°C° 0 mm 4 mps 767 mmHg 81%
    06:00 -10°C° 0 mm 4 mps 767 mmHg 80%
    07:00 -10°C° 0 mm 4 mps 767 mmHg 80%
    08:00 -10°C° 0 mm 4 mps 767 mmHg 79%
    09:00 -10°C° 0 mm 4 mps 766 mmHg 80%
    10:00 -10°C° 0 mm 4 mps 766 mmHg 80%
    11:00 -10°C° 0 mm 4 mps 766 mmHg 81%
    12:00 -10°C° 0.3 mm 4 mps 766 mmHg 83%
    13:00 -10°C° 0.3 mm 4 mps 765 mmHg 86%
    14:00 -10°C° 0.3 mm 4 mps 765 mmHg 88%
    15:00 -10°C° 0.2 mm 4 mps 765 mmHg 88%
    16:00 -10°C° 0.2 mm 4 mps 765 mmHg 87%
    17:00 -10°C° 0.2 mm 4 mps 764 mmHg 87%
    18:00 -9°C° 0 mm 3 mps 764 mmHg 87%
    19:00 -9°C° 0 mm 3 mps 764 mmHg 88%
    20:00 -8°C° 0 mm 3 mps 764 mmHg 88%
    21:00 -8°C° 0 mm 3 mps 764 mmHg 89%
    22:00 -8°C° 0 mm 3 mps 763 mmHg 89%
    23:00 -8°C° 0 mm 3 mps 763 mmHg 90%
    Show more